Stations météo

réclame
Mon MeteoGroup
Rotterdam Zestienhoven, Pays-Bas (6344): Température de l'air & dewpoint: 16.02.2020 18:00:00 - 22.02.2020 18:00:00 (CET)Rotterdam Zestienhoven, Pays-Bas (6344): Température de l'air 5cm: 16.02.2020 18:00:00 - 22.02.2020 18:00:00 (CET)Rotterdam Zestienhoven, Pays-Bas (6344): Vitesse du vent & gusts: 16.02.2020 18:00:00 - 22.02.2020 18:00:00 (CET)Rotterdam Zestienhoven, Pays-Bas (6344): Direction du vent: 16.02.2020 18:00:00 - 22.02.2020 18:00:00 (CET)Rotterdam Zestienhoven, Pays-Bas (6344): reduced air pressure: 16.02.2020 18:00:00 - 22.02.2020 18:00:00 (CET)Rotterdam Zestienhoven, Pays-Bas (6344): visibility: 16.02.2020 18:00:00 - 22.02.2020 18:00:00 (CET)Rotterdam Zestienhoven, Pays-Bas (6344): Quantités de précipitations: 16.02.2020 18:00:00 - 22.02.2020 18:00:00 (CET)
Date & Time tt [°C] td [°C] tt 5cm [°C] ff [km/h] ff [knt] fx [km/h] fx [knt] dd ppp [hPa] vv [km] rr [mm]
22.02.2020 18:00:00 11,0 9,0 10,0 37 20 - - SW 1017,9 10 -
22.02.2020 17:00:00 10,7 8,7 10,2 41 22 61 33 SW 1017,4 10 0,0
22.02.2020 16:00:00 10,8 9,0 10,6 41 22 72 39 SW 1016,7 10 0,0
22.02.2020 15:00:00 11,2 9,0 11,4 44 24 72 39 WSW 1016,6 10 0,0
22.02.2020 14:00:00 10,6 8,6 10,4 48 26 72 39 SW 1016,7 10 0,0
22.02.2020 13:00:00 10,2 8,1 10,2 54 29 79 43 SW 1016,4 10 0,0
22.02.2020 12:00:00 9,7 7,5 9,3 42 23 76 41 WSW 1016,2 10 0,0
22.02.2020 11:00:00 8,9 5,8 8,2 42 23 76 41 SW 1015,8 10 0,0
22.02.2020 10:00:00 8,3 4,9 7,6 44 24 72 39 SW 1015,6 10 0,0
22.02.2020 09:00:00 7,8 4,5 6,9 52 28 79 43 SW 1016,3 10 0,2
22.02.2020 08:00:00 7,9 3,6 7,3 44 24 72 39 SW 1015,4 10 0,0
22.02.2020 07:00:00 7,3 3,7 6,7 39 21 61 33 SSW 1015,7 10 0,0
22.02.2020 06:00:00 7,1 4,0 6,7 39 21 58 31 SSW 1016,0 10 0,0
22.02.2020 05:00:00 7,5 4,5 7,0 37 20 58 31 SSW 1016,6 10 0,0
22.02.2020 04:00:00 7,8 4,6 7,3 35 19 54 29 SSW 1017,5 10 0,0
22.02.2020 03:00:00 8,1 4,7 7,7 29 16 54 29 SSW 1017,9 10 0,0
22.02.2020 02:00:00 8,6 4,6 8,1 37 20 61 33 SW 1018,6 10 0,0
22.02.2020 01:00:00 8,9 4,8 8,3 41 22 61 33 SW 1019,9 10 0,0
22.02.2020 00:00:00 8,8 4,8 8,3 34 18 65 35 SW 1019,8 10 0,0
21.02.2020 23:00:00 9,1 4,8 8,4 35 19 58 31 SW 1020,6 10 0,0
21.02.2020 22:00:00 8,8 4,8 8,3 37 20 58 31 SW 1021,0 10 0,0
21.02.2020 21:00:00 8,8 4,7 8,2 35 19 54 29 SW 1021,6 10 0,0
21.02.2020 20:00:00 8,7 4,7 8,2 39 21 54 29 SW 1022,2 10 0,0
21.02.2020 19:00:00 8,7 4,9 8,1 39 21 61 33 SW 1022,3 10 0,0
21.02.2020 18:00:00 8,8 4,9 8,2 35 19 54 29 SW 1022,6 10 0,0
21.02.2020 17:00:00 8,7 5,1 8,2 34 18 58 31 SW 1022,6 10 0,0
21.02.2020 16:00:00 9,2 4,7 8,9 39 21 65 35 SW 1022,9 10 0,0
21.02.2020 15:00:00 9,4 4,5 9,7 39 21 58 31 SW 1022,7 10 0,0
21.02.2020 14:00:00 8,7 4,8 8,4 31 17 58 31 SW 1023,4 10 0,0
21.02.2020 13:00:00 8,5 4,3 8,3 34 18 58 31 SW 1024,1 10 0,0
21.02.2020 12:00:00 8,2 4,8 8,1 28 15 43 23 SW 1024,1 10 0,0
21.02.2020 11:00:00 7,7 4,3 7,6 24 13 40 21 SW 1024,1 10 0,0
21.02.2020 10:00:00 6,8 3,8 6,7 18 10 29 16 SW 1023,7 10 0,0
21.02.2020 09:00:00 6,5 2,9 5,1 18 10 29 16 WSW 1023,7 10 0,0
21.02.2020 08:00:00 5,9 2,1 3,9 16 9 29 16 WSW 1023,0 10 0,0
21.02.2020 07:00:00 5,5 1,8 3,7 16 9 32 18 W 1022,7 10 0,0
21.02.2020 06:00:00 5,5 1,6 3,9 21 11 36 19 W 1022,0 10 0,0
21.02.2020 05:00:00 5,4 1,4 3,5 21 11 40 21 W 1021,5 10 0,0
21.02.2020 04:00:00 5,7 1,2 4,0 26 14 43 23 W 1020,9 10 0,0
21.02.2020 03:00:00 5,9 1,0 4,1 28 15 47 25 W 1020,2 10 0,0
21.02.2020 02:00:00 5,5 0,5 3,7 24 13 43 23 W 1019,4 10 0,0
21.02.2020 01:00:00 5,4 0,4 4,0 31 17 50 27 W 1018,4 10 0,0
21.02.2020 00:00:00 5,7 0,4 4,0 34 18 54 29 W 1017,2 10 0,0
20.02.2020 23:00:00 5,9 0,9 4,2 31 17 54 29 W 1016,0 10 0,0
20.02.2020 22:00:00 6,3 1,4 4,9 35 19 58 31 W 1014,2 10 0,0
20.02.2020 21:00:00 6,3 3,5 5,3 29 16 47 25 W 1012,0 10 0,1
20.02.2020 20:00:00 5,9 2,8 4,7 28 15 65 35 WNW 1011,2 10 1,7
20.02.2020 19:00:00 6,4 5,4 6,1 34 18 86 47 W 1008,8 8 2,2
20.02.2020 18:00:00 8,9 8,1 8,5 37 20 61 33 SSW 1005,6 6 2,5
20.02.2020 17:00:00 9,1 7,4 8,7 35 19 54 29 SSW 1006,4 5 0,1
20.02.2020 16:00:00 10,1 6,3 9,5 31 17 50 27 SSW 1007,2 10 0,0
20.02.2020 15:00:00 10,3 6,2 10,0 35 19 54 29 SSW 1008,3 10 0,0
20.02.2020 14:00:00 10,2 5,9 10,0 34 18 61 33 SSW 1009,3 10 0,0
20.02.2020 13:00:00 9,5 6,2 9,3 34 18 58 31 SSW 1010,5 10 0,0
20.02.2020 12:00:00 9,2 6,3 9,2 35 19 61 33 SSW 1011,7 10 0,0
20.02.2020 11:00:00 9,4 6,0 9,4 34 18 58 31 SSW 1012,2 10 0,0
20.02.2020 10:00:00 9,2 5,7 8,5 29 16 58 31 SSW 1012,6 10 0,0
20.02.2020 09:00:00 8,7 6,1 8,1 29 16 50 27 SSW 1013,0 10 0,0
20.02.2020 08:00:00 8,6 6,3 8,0 35 19 54 29 SSW 1013,1 10 0,0
20.02.2020 07:00:00 8,6 6,5 8,0 34 18 50 27 SSW 1013,2 10 0,0
20.02.2020 06:00:00 8,3 7,0 7,8 29 16 50 27 SSW 1013,6 10 0,0
20.02.2020 05:00:00 8,3 6,7 7,8 29 16 43 23 SSW 1013,8 8 0,0
20.02.2020 04:00:00 8,2 6,6 7,8 31 17 50 27 SW 1014,2 10 0,0
20.02.2020 03:00:00 8,4 6,6 7,8 31 17 47 25 SW 1015,0 10 0,0
20.02.2020 02:00:00 8,2 6,8 7,6 29 16 50 27 SW 1015,3 10 0,0
20.02.2020 01:00:00 7,4 6,5 6,9 24 13 40 21 SSW 1015,9 10 0,1
20.02.2020 00:00:00 6,8 5,9 6,5 26 14 40 21 SSW 1016,7 10 0,3
19.02.2020 23:00:00 6,5 5,3 6,1 24 13 40 21 S 1017,2 10 0,0
19.02.2020 22:00:00 6,2 5,1 5,9 22 12 36 19 S 1017,7 10 0,2
19.02.2020 21:00:00 6,4 4,7 6,0 26 14 36 19 SSW 1018,6 10 0,1
19.02.2020 20:00:00 6,5 4,5 5,9 22 12 40 21 SW 1019,1 10 0,0
19.02.2020 19:00:00 6,8 3,9 6,1 24 13 40 21 SW 1019,4 10 0,0
19.02.2020 18:00:00 6,8 2,9 5,8 24 13 40 21 SW 1019,7 10 0,0
19.02.2020 17:00:00 6,9 2,2 6,2 29 16 43 23 WSW 1020,0 10 0,0
19.02.2020 16:00:00 6,8 2,0 6,5 29 16 43 23 WSW 1020,3 10 0,0
19.02.2020 15:00:00 7,3 2,0 8,2 29 16 47 25 WSW 1020,3 10 0,0
19.02.2020 14:00:00 7,0 1,6 7,1 29 16 43 23 W 1020,2 10 0,0
19.02.2020 13:00:00 7,7 1,7 8,7 29 16 47 25 W 1020,0 10 0,0
19.02.2020 12:00:00 7,0 1,7 6,9 31 17 50 27 W 1019,8 10 0,0
19.02.2020 11:00:00 6,6 1,8 6,8 31 17 47 25 W 1019,2 10 0,0
19.02.2020 10:00:00 6,4 2,1 5,6 24 13 40 21 W 1018,4 10 0,0
19.02.2020 09:00:00 5,6 1,7 4,9 28 15 43 23 W 1017,7 10 0,0
19.02.2020 08:00:00 5,4 1,5 4,5 26 14 40 21 W 1016,8 10 0,0
19.02.2020 07:00:00 5,6 1,9 4,8 28 15 47 25 WNW 1016,1 10 0,0
19.02.2020 06:00:00 5,7 1,5 4,6 28 15 43 23 WNW 1015,2 10 0,0
19.02.2020 05:00:00 5,6 1,8 4,2 29 16 47 25 WNW 1013,9 10 0,0
19.02.2020 04:00:00 5,9 2,0 5,0 31 17 47 25 WNW 1013,2 10 0,0
19.02.2020 03:00:00 6,9 3,6 5,4 21 11 43 23 W 1012,2 10 0,0
19.02.2020 02:00:00 6,8 3,7 5,5 24 13 36 19 W 1011,9 10 0,4
19.02.2020 01:00:00 7,1 5,3 6,3 31 17 58 31 SW 1011,6 10 0,2
19.02.2020 00:00:00 7,1 4,6 6,4 34 18 58 31 SW 1011,7 10 0,0
18.02.2020 23:00:00 7,3 5,2 6,8 39 21 61 33 SSW 1012,3 10 0,4
18.02.2020 22:00:00 8,2 4,8 7,4 44 24 68 37 SW 1013,8 10 0,0
18.02.2020 21:00:00 8,0 5,3 7,2 37 20 58 31 SW 1014,7 10 0,2
18.02.2020 20:00:00 8,4 4,6 7,8 35 19 61 33 SW 1015,7 10 0,0
18.02.2020 19:00:00 8,6 4,2 7,9 41 22 65 35 SW 1016,4 10 0,0
18.02.2020 18:00:00 8,9 3,7 8,1 41 22 65 35 SW 1017,0 10 0,0
18.02.2020 17:00:00 8,6 3,8 7,9 37 20 68 37 SW 1017,8 10 0,0
18.02.2020 16:00:00 9,0 3,5 8,6 42 23 65 35 SW 1018,1 10 0,0
18.02.2020 15:00:00 8,8 3,0 8,7 41 22 61 33 WSW 1018,9 10 0,0
18.02.2020 14:00:00 8,5 3,0 8,7 34 18 61 33 WSW 1019,3 10 0,0
18.02.2020 13:00:00 7,8 3,3 7,3 35 19 58 31 WSW 1019,7 10 0,0
18.02.2020 12:00:00 8,6 3,9 7,4 35 19 50 27 WSW 1019,8 10 0,0
18.02.2020 11:00:00 7,2 3,8 - 28 15 43 23 SW 1019,8 10 0,0
18.02.2020 10:00:00 6,9 3,8 6,3 24 13 - - SW 1019,9 10 0,0
18.02.2020 09:00:00 6,8 2,8 5,7 26 14 43 23 SW 1019,5 10 0,0
18.02.2020 08:00:00 6,5 3,2 5,3 22 12 40 21 SW 1019,3 10 0,0
18.02.2020 07:00:00 6,7 3,0 - 28 15 43 23 WSW 1018,6 10 0,0
18.02.2020 06:00:00 6,7 2,0 - 26 14 43 23 WSW 1018,4 10 0,0
18.02.2020 05:00:00 6,9 2,1 5,6 28 15 47 25 WSW 1017,8 10 0,0
18.02.2020 04:00:00 7,0 2,8 - 26 14 - - WSW 1017,6 10 0,0
18.02.2020 03:00:00 7,4 3,7 6,4 28 15 47 25 WSW 1017,0 10 0,0
18.02.2020 02:00:00 7,9 3,7 6,8 31 17 50 27 WSW 1016,3 10 0,0
18.02.2020 01:00:00 8,1 4,7 7,2 31 17 54 29 WSW 1015,6 10 0,0
18.02.2020 00:00:00 7,9 5,1 6,7 34 18 50 27 WSW 1014,8 10 0,0
17.02.2020 23:00:00 8,2 5,0 7,0 31 17 54 29 WSW 1013,9 10 0,0
17.02.2020 22:00:00 8,1 5,5 6,7 34 18 54 29 WSW 1013,2 10 1,6
17.02.2020 21:00:00 7,9 5,7 6,3 22 12 50 27 W 1012,6 10 0,9
17.02.2020 20:00:00 8,4 5,1 7,5 35 19 54 29 SW 1012,0 10 0,0
17.02.2020 19:00:00 8,1 5,5 7,5 29 16 58 31 SW 1011,4 10 0,0
17.02.2020 18:00:00 7,8 4,8 7,5 39 21 58 31 SW 1010,7 10 0,0
17.02.2020 17:00:00 8,4 4,4 7,7 41 22 65 35 SW 1010,4 10 0,0
17.02.2020 16:00:00 8,7 4,3 8,4 42 23 65 35 SW 1010,1 10 0,0
17.02.2020 15:00:00 8,7 4,3 9,0 41 22 65 35 SW 1009,9 10 0,0
17.02.2020 14:00:00 8,8 4,2 7,4 41 22 68 37 SW 1009,7 10 0,0
17.02.2020 13:00:00 7,6 3,5 6,5 39 21 65 35 WSW 1009,9 10 0,7
17.02.2020 12:00:00 9,1 4,3 8,8 35 19 58 31 SSW 1010,0 10 0,0
17.02.2020 11:00:00 9,0 4,4 7,9 29 16 65 35 SSW 1009,7 22 0,0
17.02.2020 10:00:00 8,3 3,9 7,5 36 19 65 35 SSW 1009,2 21 0,0
17.02.2020 09:00:00 7,5 3,8 6,4 40 21 54 29 SSW 1009,4 19 0,0
17.02.2020 08:00:00 6,9 3,5 5,8 29 16 54 29 SSW 1009,2 18 0,0
17.02.2020 07:00:00 7,0 3,6 6,1 32 18 50 27 SSW 1009,1 15 0,0
17.02.2020 06:00:00 7,4 3,0 6,4 25 14 50 27 SSW 1009,1 12 0,0
17.02.2020 05:00:00 7,8 2,1 6,4 36 19 58 31 SW 1008,8 13 0,0
17.02.2020 04:00:00 7,9 1,3 6,6 40 21 61 33 WSW 1008,3 17 0,0
17.02.2020 03:00:00 8,1 2,6 6,7 40 21 68 37 WSW 1007,3 13 0,0
17.02.2020 02:00:00 7,7 3,1 6,4 40 21 83 45 WSW 1006,1 17 0,0
17.02.2020 01:00:00 8,7 3,6 7,5 47 25 68 37 WSW 1004,7 14 0,0
17.02.2020 00:00:00 9,0 5,9 8,3 37 20 72 39 WSW 1003,7 10 0,0
16.02.2020 23:00:00 9,2 6,3 8,5 39 21 61 33 SW 1002,3 10 0,0
16.02.2020 22:00:00 9,1 6,1 8,3 42 23 58 31 SW 1001,1 10 0,0
16.02.2020 21:00:00 8,6 6,2 7,8 46 25 61 33 SW 1000,8 10 0,0
16.02.2020 20:00:00 8,4 6,4 7,6 39 21 61 33 SW 999,3 10 1,8
16.02.2020 19:00:00 7,9 6,7 7,5 29 16 54 29 WSW 998,4 10 2,3
16.02.2020 18:00:00 9,1 8,3 8,7 34 18 65 35 W 997,1 7 9,6

tt = Température de l'air
td = dewpoint
tt 5cm = Température de l'air 5cm
ff = Vitesse du vent
fx = gusts
dd = Direction du vent
ppp = reduced air pressure
vv = visibility
rr = Quantités de précipitations

stations d'obs. à proximité